星链-3968 (STARLINK-3968 )

导读 | 星芒AI

STARLINK-3968 是 SpaceX 星链计划中的一颗低轨通信卫星,属于第 14 批组网发射的星链卫星之一。该卫星于 2022 年 11 月 18 日由猎鹰 9 号火箭送入近地轨道,旨在为全球用户提供高速互联网服务。它运行在约 550 公里的高度,具备先进的相控阵天线和激光通信技术,支持星间通信,提高网络稳定性和覆盖范围。作为星链系统的一部分,STARLINK-3968 有助于扩大 SpaceX 在全球宽带市场的影响力。

基本信息
目录编号:
52639
目录名称:
STARLINK-3968
国际标识:
2022-052AT
轨道中心:
EARTH
卫星名称:
星链-3968
卫星全名:
星链-3968 (STARLINK-3968 )
卫星状态:
在轨 (已飞行1271 天)
发射日期:
2022-05-14 UTC
国别 :
美国 (US)
星等 :
--
轨道信息
数据来源 国际轨道数据 AOE轨道数据
星历时间 2025-11-05T03:15:34+0800
5小时前
查看轨道信息
2025-11-02T03:00:00+0800
3天前
查看轨道信息
半长轴 6917.884km 6917.907km
偏心率 0.0001372 0.0001176
轨道倾角 53.216° 53.205°
近地点辐角 90.658° 139.599°
升交点赤经 99.759° 113.278°
平近点角 269.457° 57.438°
近地点 538.799km 538.958km
远地点 540.699km 540.586km
周期 95.438分钟 95.438分钟
每日圈数 15.088391 15.088314
详细信息
固有亮度:
5
最大亮度:
2.5
卫星平台:
Starlink v1.5
覆盖范围:
全球
运营商:
太空探索技术公司
运营商所在国:
美国
制造商(研发单位):
太空探索技术公司
制造商所在国:
美国
使用方式:
暂无
卫星简介
星链(Starlink)计划是由太空探索技术公司(SpaceX)提出的一个巨型低轨卫星互联网星座项目,计划在2019年至2024年间在太空搭建由约1.2万颗卫星组成的“星链”网络,其中1584颗将部署在地球上空550千米处的近地轨道,并从2020年开始工作。该卫星仍在工作。
2D轨道图
3D轨道图
轨道高度分析图
轨道倾角分析图
轨道综合分析图
查看轨道综合分析图